Wind_Speed
36 33 30 31 31 28 29 31 32 29 27 26 25 21 22 22 20 19 18 19 18 17 16 16 15 15 14 13 14 13 15 15 17 16 15 12 10 10 11 14 15 15 17
35 36 33 32 31 29 30 31 31 34 31 29 28 25 24 24 23 21 21 25 25 21 19 19 17 16 17 17 17 19 19 18 19 18 16 15 14 14 16 17 18 17 17
34 33 33 33 33 31 30 29 30 31 34 32 29 30 28 26 26 27 26 26 26 24 21 20 18 18 19 18 17 17 16 16 16 17 17 18 17 15 15 17 17 16 18
30 33 34 33 33 31 28 29 29 26 29 33 34 32 33 32 32 32 31 25 26 25 22 21 21 20 20 19 18 17 16 16 17 19 21 19 17 15 16 16 17 16 16
22 24 24 28 28 30 29 28 29 28 26 26 30 35 36 35 34 32 30 29 27 29 27 25 23 24 25 24 22 20 19 19 19 20 20 18 17 16 16 14 16 16 17
14 17 18 22 26 28 32 30 30 33 33 32 28 32 34 37 36 34 32 30 30 31 32 29 27 26 26 23 21 22 21 20 20 20 18 19 19 18 18 17 18 17 19
16 17 18 18 21 24 28 28 31 34 26 27 34 29 31 35 35 36 33 33 33 32 32 32 29 29 26 24 22 21 21 21 22 20 21 20 19 17 16 18 16 16 17
8 11 15 17 20 21 22 23 25 30 30 32 34 37 37 28 27 32 36 35 37 36 34 32 32 30 29 27 26 24 23 21 20 21 21 22 22 21 21 20 19 18 17
1 2 5 8 11 12 13 15 18 22 27 37 35 30 32 30 28 27 28 33 37 38 38 37 34 32 30 28 28 28 27 25 24 22 23 24 23 23 23 21 20 19 18
9 7 6 3 1 3 5 6 8 11 17 20 21 23 28 32 29 29 30 29 36 37 37 36 35 33 30 29 31 27 28 27 26 25 25 25 23 22 21 20 19 18 15
5 6 6 6 5 4 1 4 6 7 6 6 10 15 19 19 23 31 35 36 34 30 32 31 32 31 29 29 30 34 32 29 27 25 24 24 22 21 21 19 16 16 16
1 1 2 3 3 4 4 1 4 8 10 9 8 11 13 14 16 16 17 19 20 14 12 15 20 20 23 23 24 28 31 31 28 28 26 23 20 19 17 17 15 14 12
3 3 4 1 1 1 4 3 0 2 7 9 9 4 5 4 3 3 1 3 7 8 7 10 13 16 22 20 19 19 21 24 20 16 16 19 16 12 8 6 5 5 4
3 6 6 2 3 3 3 2 2 3 4 4 4 5 5 4 4 5 5 6 4 2 4 4 7 9 9 9 10 11 11 11 10 11 13 9 6 8 8 7 6 6 6
7 8 5 4 3 4 4 4 4 4 4 5 6 5 7 7 6 7 8 10 11 9 8 11 9 6 4 2 2 4 5 6 9 8 8 9 11 11 9 8 7 6 5
9 6 5 6 7 6 5 2 3 3 3 3 3 4 3 4 5 5 5 5 5 6 6 6 6 6 6 6 6 8 8 7 8 9 10 11 10 9 9 9 9 9 10
5 8 6 7 6 6 5 4 1 2 3 2 1 2 3 5 7 7 8 7 6 6 5 6 8 9 8 8 8 7 7 8 9 10 11 10 10 11 11 12 12 11 11
11 10 5 5 7 6 6 6 6 4 4 3 3 3 4 6 7 7 7 7 6 6 7 6 5 4 4 5 6 5 6 7 7 8 10 10 11 11 13 13 11 10 9
16 12 10 7 6 6 6 6 3 3 4 4 4 4 4 5 6 5 4 5 5 6 6 5 4 4 4 4 7 7 8 9 9 10 11 11 12 14 15 13 10 8 8
15 14 10 10 9 8 7 5 2 1 2 3 3 5 6 6 6 6 6 4 4 5 6 6 5 5 4 5 6 7 8 9 10 11 11 13 14 14 12 11 9 7 7
16 15 12 10 9 9 6 5 4 3 2 2 1 4 5 4 6 7 7 7 6 5 5 3 2 1 2 3 5 7 8 9 10 11 13 15 14 12 10 9 9 7 8
17 14 13 12 9 9 7 7 6 6 4 2 2 1 2 3 4 6 7 6 5 5 4 4 5 4 5 4 5 6 7 9 10 11 12 12 13 12 10 9 10 9 8
15 15 14 12 12 11 10 9 8 6 5 3 3 3 2 5 5 5 5 7 5 5 6 5 6 7 7 6 6 8 8 8 9 9 9 9 12 12 12 11 11 11 9
17 15 13 13 14 13 11 10 10 8 7 7 8 8 6 4 5 6 7 7 7 7 7 5 5 7 9 7 6 7 11 11 12 10 8 9 12 13 12 13 11 10 10
18 16 14 14 14 14 13 13 13 11 10 9 8 10 9 9 9 8 8 9 10 9 8 7 7 7 9 10 10 9 7 12 14 12 13 14 13 14 15 14 13 13 12
17 15 14 12 12 14 16 17 17 18 14 10 10 9 9 9 11 12 12 12 12 12 11 11 10 10 10 10 10 11 12 12 15 16 15 15 16 16 17 17 16 14 13
Wind_Direction
239 242 239 237 241 242 243 242 242 244 243 244 249 250 247 252 250 248 257 268 271 262 254 258 265 267 267 265 263 263 267 275 278 283 283 281 279 275 267 269 273 274 278
241 244 245 246 247 248 250 247 247 245 247 249 248 251 252 245 245 246 259 260 261 263 256 258 266 267 267 269 269 269 271 272 272 278 276 282 285 279 269 268 272 275 273
246 243 246 252 251 256 260 249 249 248 248 249 248 247 249 251 248 252 261 267 255 259 259 257 260 264 275 274 274 267 271 268 269 272 278 286 283 283 282 276 272 271 275
248 244 249 252 253 255 256 248 250 252 250 249 250 251 249 250 255 259 260 264 257 257 256 258 261 263 270 274 273 270 264 266 270 273 278 280 284 282 285 284 280 279 276
243 245 247 243 253 249 253 253 253 251 245 250 250 253 250 248 249 255 258 257 254 256 257 261 270 265 270 271 264 258 263 266 269 276 278 272 277 282 288 289 289 287 284
261 261 261 250 254 255 253 253 250 244 258 244 253 251 247 246 248 250 250 250 249 251 258 257 269 269 268 263 260 253 259 267 272 270 277 276 278 281 282 285 290 286 287
267 267 265 260 256 257 258 254 248 239 240 252 251 252 252 249 245 247 250 246 248 250 255 260 260 267 263 258 258 256 259 263 264 269 272 276 278 279 274 283 284 284 283
257 261 261 259 259 261 261 256 254 244 240 237 245 249 256 252 249 244 247 249 250 251 253 255 260 261 261 257 256 255 259 261 260 266 271 272 272 276 282 282 278 278 277
103 264 267 262 257 259 256 251 250 249 248 236 247 249 251 253 253 257 250 249 252 254 253 256 257 256 257 254 252 255 255 259 261 265 268 270 272 275 274 273 275 280 283
92 80 72 72 207 229 235 243 255 254 249 251 254 258 259 255 259 265 256 269 261 257 252 255 253 253 257 254 251 254 256 257 260 268 273 271 269 264 262 263 273 281 275
110 99 89 85 84 83 157 229 240 253 246 260 267 265 267 266 280 269 260 255 254 262 254 251 253 254 255 255 256 254 256 260 260 264 268 269 263 261 266 269 268 261 259
195 242 77 108 108 96 84 92 239 246 268 263 257 274 278 285 306 249 261 245 245 243 244 249 254 261 259 261 263 259 257 259 251 262 270 258 248 252 260 256 252 252 247
248 296 323 331 215 113 87 93 25 230 242 270 275 265 281 277 283 197 214 224 220 240 260 283 289 288 279 275 271 270 261 250 254 242 243 233 238 230 233 221 196 180 176
224 289 300 243 187 232 241 217 238 194 222 252 263 269 281 248 224 234 209 218 204 160 148 286 299 275 228 224 242 236 227 235 241 236 228 222 214 192 154 151 152 151 159
238 274 262 203 167 194 197 197 208 225 225 233 248 248 253 246 235 213 224 236 248 257 247 251 261 233 178 207 268 257 213 207 209 195 199 186 168 158 150 156 155 164 156
258 250 202 186 167 146 134 126 140 186 224 239 249 231 210 207 195 190 190 191 171 164 177 182 176 182 183 179 196 196 186 182 168 170 160 162 161 168 171 165 155 141 133
239 172 188 171 172 165 170 163 150 183 191 196 161 134 148 149 151 150 143 146 151 167 164 155 145 143 146 151 156 159 168 165 164 164 173 178 176 170 165 160 150 142 139
178 177 188 162 158 172 171 156 136 131 157 173 168 139 133 137 146 148 146 160 154 151 148 152 159 172 192 200 193 197 199 190 182 181 179 177 171 172 169 165 159 154 145
181 190 192 194 174 160 153 153 153 171 180 196 208 204 198 193 194 198 201 202 191 194 193 183 198 219 222 216 181 182 184 183 180 179 175 175 172 168 167 166 166 176 179
186 192 206 207 209 194 184 183 169 192 233 233 236 223 220 217 222 215 206 189 173 175 167 152 141 143 150 175 181 181 179 178 180 180 181 173 168 167 172 172 173 169 170
186 190 196 200 198 193 194 183 201 219 198 154 177 198 204 211 203 195 183 170 155 146 155 162 172 194 210 208 203 193 189 184 181 177 173 174 177 179 182 193 198 193 192
191 202 194 188 194 191 179 172 169 159 152 113 83 131 159 164 171 176 183 189 185 188 198 212 219 233 228 212 200 193 189 185 181 181 187 192 190 190 197 201 202 210 212
189 187 191 197 193 189 182 179 177 175 184 212 265 294 274 230 225 214 203 200 217 225 227 239 240 227 207 200 201 199 194 183 178 185 194 201 206 212 220 212 210 210 212
187 190 187 187 187 190 193 196 196 208 234 236 252 261 265 255 228 220 217 219 225 215 224 235 234 219 214 219 221 226 217 202 201 202 206 217 217 216 214 212 217 220 225
188 184 191 200 207 215 221 217 222 235 241 252 235 239 236 237 226 213 201 201 206 211 223 231 234 230 223 224 230 233 234 221 220 222 231 230 228 223 224 226 225 230 234
182 189 200 210 227 238 241 239 240 237 247 240 243 237 244 252 253 253 249 243 240 243 247 249 248 243 237 233 228 224 220 221 223 222 226 227 230 229 226 225 231 237 229
Height
1525 1529 1532 1535 1539 1543 1546 1550 1554 1557 1559 1561 1563 1565 1567 1569 1570 1571 1573 1575 1575 1576 1577 1578 1578 1580 1581 1581 1582 1582 1583 1583 1582 1582 1581 1582 1582 1581 1582 1583 1582 1581 1580
1521 1524 1526 1531 1535 1538 1540 1543 1547 1550 1553 1555 1557 1559 1562 1564 1566 1567 1569 1570 1572 1572 1573 1574 1575 1576 1577 1578 1578 1578 1579 1579 1579 1578 1579 1579 1579 1578 1578 1578 1578 1577 1576
1515 1519 1522 1525 1528 1531 1534 1537 1540 1543 1546 1550 1552 1553 1556 1559 1561 1562 1563 1564 1566 1568 1569 1569 1570 1571 1571 1572 1573 1573 1574 1575 1575 1575 1575 1575 1575 1574 1574 1574 1574 1573 1573
1509 1512 1516 1518 1521 1524 1527 1529 1533 1536 1538 1541 1544 1547 1549 1552 1555 1556 1556 1558 1561 1563 1564 1565 1565 1566 1567 1567 1568 1569 1570 1571 1571 1571 1571 1571 1571 1571 1570 1570 1569 1569 1569
1502 1505 1508 1512 1515 1518 1520 1522 1525 1527 1530 1532 1535 1538 1541 1543 1547 1549 1550 1552 1554 1557 1558 1560 1560 1561 1562 1562 1563 1564 1566 1566 1567 1567 1566 1566 1567 1567 1566 1565 1564 1564 1563
1496 1498 1502 1505 1508 1510 1513 1516 1518 1521 1522 1524 1528 1530 1533 1534 1538 1542 1543 1545 1547 1550 1551 1554 1555 1556 1556 1557 1557 1558 1560 1560 1561 1560 1560 1560 1561 1561 1561 1560 1559 1558 1557
1492 1494 1496 1498 1500 1503 1504 1507 1510 1513 1516 1514 1522 1526 1526 1527 1530 1533 1536 1537 1539 1542 1545 1547 1548 1550 1551 1551 1552 1553 1553 1554 1554 1554 1554 1555 1555 1555 1555 1555 1555 1554 1553
1488 1489 1491 1492 1494 1496 1497 1499 1502 1505 1509 1513 1512 1519 1521 1522 1523 1526 1529 1529 1530 1533 1536 1539 1541 1542 1544 1545 1546 1547 1547 1547 1548 1549 1549 1550 1550 1551 1550 1550 1549 1549 1548
1486 1488 1489 1489 1490 1491 1492 1494 1498 1501 1503 1505 1507 1510 1513 1515 1518 1519 1520 1522 1523 1525 1529 1531 1532 1534 1536 1539 1540 1540 1541 1540 1541 1543 1544 1544 1544 1544 1545 1544 1544 1544 1544
1487 1488 1488 1489 1489 1489 1490 1492 1493 1496 1498 1500 1503 1504 1506 1507 1509 1510 1512 1514 1516 1518 1520 1522 1524 1526 1528 1531 1532 1533 1533 1534 1536 1537 1537 1537 1537 1538 1538 1539 1539 1539 1540
1488 1488 1489 1489 1489 1489 1489 1491 1492 1493 1495 1497 1498 1498 1500 1501 1501 1500 1502 1504 1508 1509 1510 1513 1517 1519 1521 1522 1524 1525 1526 1528 1529 1531 1531 1531 1531 1531 1532 1532 1532 1533 1533
1487 1487 1488 1489 1489 1489 1489 1489 1490 1492 1494 1495 1496 1496 1497 1497 1495 1492 1495 1498 1501 1503 1502 1506 1509 1511 1513 1515 1516 1517 1519 1521 1521 1522 1521 1523 1525 1526 1525 1525 1525 1526 1526
1485 1485 1485 1486 1488 1488 1489 1490 1490 1491 1493 1493 1494 1494 1495 1494 1495 1495 1495 1495 1495 1494 1495 1500 1502 1502 1507 1508 1509 1510 1512 1512 1512 1514 1517 1518 1519 1516 1517 1520 1523 1524 1526
1485 1485 1485 1486 1487 1489 1489 1490 1490 1491 1492 1492 1493 1492 1494 1494 1495 1496 1496 1497 1496 1494 1495 1497 1498 1500 1501 1502 1505 1507 1507 1509 1511 1512 1513 1516 1516 1520 1518 1520 1525 1527 1528
1483 1484 1484 1485 1486 1487 1489 1490 1491 1491 1491 1491 1492 1491 1492 1492 1493 1494 1494 1496 1495 1493 1493 1497 1498 1499 1501 1502 1504 1506 1507 1507 1509 1509 1513 1515 1516 1519 1519 1523 1525 1528 1528
1482 1482 1483 1484 1486 1488 1489 1490 1491 1491 1491 1491 1491 1490 1490 1490 1490 1491 1493 1494 1494 1494 1496 1497 1498 1500 1500 1502 1505 1507 1505 1511 1510 1511 1511 1516 1516 1518 1522 1524 1527 1528 1528
1480 1481 1483 1485 1487 1488 1489 1491 1491 1491 1491 1491 1491 1491 1490 1490 1491 1491 1492 1493 1494 1496 1497 1498 1499 1501 1503 1504 1506 1508 1511 1512 1512 1512 1515 1517 1518 1520 1524 1526 1528 1529 1529
1480 1482 1484 1486 1487 1489 1490 1491 1492 1493 1493 1493 1493 1493 1494 1494 1494 1494 1494 1494 1496 1497 1498 1500 1502 1503 1503 1504 1506 1507 1509 1510 1511 1512 1514 1516 1519 1521 1523 1527 1528 1529 1529
1479 1482 1484 1487 1488 1489 1490 1492 1493 1494 1494 1494 1494 1495 1495 1495 1496 1496 1497 1497 1498 1498 1499 1500 1501 1502 1503 1504 1505 1506 1508 1509 1510 1512 1514 1516 1518 1521 1524 1526 1527 1529 1529
1478 1481 1484 1486 1487 1489 1490 1492 1493 1494 1494 1494 1494 1495 1495 1495 1496 1497 1498 1498 1498 1499 1500 1502 1503 1503 1503 1505 1506 1507 1507 1508 1510 1511 1514 1516 1518 1521 1523 1524 1527 1528 1528
1476 1479 1482 1484 1486 1488 1490 1491 1493 1494 1494 1494 1494 1494 1494 1495 1495 1496 1497 1499 1500 1500 1501 1502 1503 1504 1504 1506 1506 1506 1507 1507 1509 1512 1513 1515 1518 1520 1521 1523 1526 1527 1528
1475 1478 1480 1483 1485 1487 1489 1491 1492 1493 1494 1495 1495 1495 1495 1496 1496 1497 1498 1499 1500 1501 1502 1502 1503 1503 1504 1504 1505 1506 1506 1508 1510 1512 1514 1515 1516 1518 1520 1522 1524 1525 1526
1474 1477 1479 1482 1484 1486 1488 1490 1492 1493 1494 1495 1495 1495 1496 1497 1497 1498 1498 1499 1500 1501 1501 1502 1502 1503 1503 1504 1504 1505 1507 1508 1510 1511 1511 1513 1514 1517 1518 1520 1522 1523 1524
1473 1476 1479 1481 1483 1485 1487 1489 1491 1492 1493 1494 1495 1495 1496 1496 1497 1497 1498 1498 1499 1500 1500 1501 1501 1501 1502 1503 1504 1505 1506 1507 1507 1508 1510 1511 1513 1515 1516 1518 1520 1521 1522
1472 1475 1478 1481 1483 1485 1487 1488 1489 1491 1492 1493 1493 1494 1494 1495 1496 1496 1497 1497 1498 1499 1499 1499 1500 1500 1500 1501 1501 1502 1503 1505 1506 1508 1509 1510 1511 1513 1514 1515 1517 1518 1519
1471 1475 1478 1480 1482 1483 1484 1485 1486 1488 1489 1490 1491 1492 1492 1493 1494 1494 1495 1495 1496 1497 1497 1498 1498 1498 1499 1498 1498 1499 1500 1501 1503 1505 1506 1508 1509 1509 1510 1511 1512 1513 1515